This is the latest recevied weather packets stored in our database for station/object KG5APU. If no packets are shown the sender has not sent any weather packets the latest 10 day(s).
| Time | Temp. | Humidity | Pressure | Rain* | Wind** | Luminosity | Snow |
|---|---|---|---|---|---|---|---|
| 1788381259 | 37.22° C | 44% | 1013.3 hPa | 0 mm | - | 647 W/m² | - |
| 1788380654 | 36.67° C | 44% | 1013.5 hPa | 0 mm | - | 697 W/m² | - |
| 1788380051 | 36.67° C | 45% | 1013.6 hPa | 0 mm | - | 566 W/m² | - |
| 1788379446 | 36.67° C | 43% | 1013.7 hPa | 0 mm | - | 719 W/m² | - |
| 1788378841 | 36.67° C | 43% | 1013.9 hPa | 0 mm | - | 723 W/m² | - |
| 1788378236 | 36.67° C | 44% | 1014 hPa | 0 mm | - | 738 W/m² | - |
| 1788377633 | 36.11° C | 45% | 1014 hPa | 0 mm | - | 746 W/m² | - |
| 1788377030 | 36.11° C | 45% | 1014.3 hPa | 0 mm | - | 758 W/m² | - |
| 1788376426 | 36.11° C | 46% | 1014.4 hPa | 0 mm | - | 772 W/m² | - |
| 1788375827 | 35.56° C | 46% | 1014.6 hPa | 0 mm | - | 777 W/m² | - |
| 1788375224 | 35.56° C | 48% | 1015 hPa | 0 mm | - | 435 W/m² | - |
| 1788374620 | 35.56° C | 47% | 1014.9 hPa | 0 mm | - | 791 W/m² | - |
| 1788374018 | 35.56° C | 48% | 1014.9 hPa | 0 mm | - | 791 W/m² | - |
| 1788373416 | 35.56° C | 48% | 1015.4 hPa | 0 mm | - | 794 W/m² | - |
| 1788372813 | 35° C | 50% | 1015.4 hPa | 0 mm | - | 791 W/m² | - |
| 1788372209 | 35° C | 50% | 1015.6 hPa | 0 mm | - | 791 W/m² | - |
| 1788371605 | 33.89° C | 52% | 1016 hPa | 0 mm | - | 791 W/m² | - |
| 1788371003 | 34.44° C | 51% | 1016.3 hPa | 0 mm | - | 781 W/m² | - |
| 1788370398 | 33.89° C | 52% | 1016.3 hPa | 0 mm | - | 775 W/m² | - |
| 1788369798 | 33.89° C | 54% | 1016.6 hPa | 0 mm | - | 761 W/m² | - |
| 1788369194 | 33.89° C | 56% | 1016.5 hPa | 0 mm | - | 745 W/m² | - |
| 1788368592 | 32.78° C | 58% | 1016.7 hPa | 0 mm | - | 730 W/m² | - |
| 1788367987 | 32.78° C | 59% | 1017 hPa | 0 mm | - | 714 W/m² | - |
| 1788367382 | 32.78° C | 58% | 1017.2 hPa | 0 mm | - | 693 W/m² | - |
| 1788366776 | 32.78° C | 60% | 1017.1 hPa | 0 mm | - | 672 W/m² | - |
* Rain latest hour (hover to see other rain measurements)
** Current wind speed in m/s (hover to see current wind gust speed)